Location: ??????????
(48.4699°N, 37.9573°E)
Time: 03:19:54
(UTC+00:00)

USA 229 - Pass Details

Date: 20 January 2021
Orbit: 964 x 1248 km, 63.4° (Epoch: 23 February)

Event Time Altitude Azimuth Distance (km) Brightness Sun altitude
Rises 17:53:02 0° 317° (NW) 3,963 7.3 -36.8°
Reaches altitude 10° 17:55:41 10° 314° (NW) 3,040 6.6 -37.2°
Enters shadow 18:01:55 55° 266° (W) 1,400 4.4 -38.2°
